PBO Station Position Time Series. Reference Frame : NAM14
Format Version,1.1.0
4-character ID,VIL0
Station name,Vilhelmina
Begin Date, 1997-10-28
End Date, 2020-04-27
Release Date, 2021-08-28
Reference position, 64.6978484827 North Latitude, 16.5599322639 East Longitude, 450.04813 meters elevation,
Date, North (mm), East (mm), Vertical (mm), North Std. Deviation (mm), East Std. Deviation (mm),              Vertical Std. Deviation (mm), Quality,
1997-10-28,0.00, 0.00, 0.00, 4.47, 4.01, 10.25, repro,
1997-11-01,3.98, -2.38, 4.53, 4.76, 4.17, 10.93, repro,
1997-11-02,1.58, 1.91, -0.65, 4.90, 4.44, 11.19, repro,
1997-11-03,3.00, 3.40, -8.05, 4.81, 4.45, 11.25, repro,
1997-11-04,5.08, 2.07, -2.29, 5.09, 4.70, 11.44, repro,
1997-11-05,3.26, 14.29, -1.14, 4.30, 3.63, 10.47, repro,
1997-11-06,4.35, 4.21, -1.11, 4.62, 4.02, 11.71, repro,
1997-11-07,5.92, 1.92, 12.46, 5.11, 4.53, 12.04, repro,
1997-11-08,3.13, 4.18, 3.08, 4.23, 3.60, 10.46, repro,
1997-11-10,0.95, -1.83, 1.06, 4.37, 3.68, 10.38, repro,
1997-11-11,-1.13, 5.09, 1.95, 4.55, 4.03, 10.65, repro,
1997-11-12,1.54, 2.41, -3.86, 4.63, 4.00, 10.69, repro,
1997-11-13,-3.83, 8.77, -12.59, 4.45, 3.98, 10.51, repro,
1997-11-14,-2.88, -0.69, 9.00, 4.79, 4.27, 11.10, repro,
1997-11-15,1.59, 2.88, -4.90, 4.51, 3.79, 10.40, repro,
1997-11-16,-4.42, 4.46, -11.72, 4.83, 4.28, 11.15, repro,
1997-11-17,1.25, 4.53, 2.24, 4.61, 4.37, 10.58, repro,
1997-11-18,1.52, 7.84, -3.48, 4.83, 4.69, 10.90, repro,
1997-11-19,-1.11, 3.34, -6.68, 4.66, 4.38, 11.24, repro,
1997-11-20,1.82, 0.51, 0.87, 4.64, 4.15, 11.35, repro,
1997-11-21,3.55, 13.77, -8.90, 4.92, 4.37, 11.86, repro,
1997-11-22,-11.61, -2.61, -14.36, 5.65, 5.32, 13.39, repro,
1997-11-23,2.41, -3.17, -6.50, 5.42, 4.59, 11.56, repro,
1997-11-24,5.01, 8.76, -13.84, 4.67, 4.43, 11.07, repro,
1997-11-26,5.30, -0.71, 1.07, 4.63, 4.32, 11.03, repro,
1997-11-27,2.24, -3.33, -1.97, 5.14, 4.44, 11.30, repro,
1997-11-28,-0.29, 0.70, -17.21, 4.96, 4.71, 11.68, repro,
1997-11-29,6.35, 17.12, -28.44, 4.60, 4.00, 10.70, repro,
1997-11-30,5.77, 9.65, -9.33, 3.40, 2.26, 9.06, repro,
1997-12-01,6.59, 7.06, -14.97, 4.55, 4.23, 10.77, repro,
1997-12-03,-1.01, -2.56, 3.34, 4.79, 4.35, 11.30, repro,
1997-12-04,-0.38, 0.23, -10.69, 4.73, 4.37, 10.52, repro,
1997-12-05,-5.08, 10.73, -19.21, 4.77, 4.16, 10.56, repro,
1997-12-06,4.59, 5.79, -10.63, 4.61, 4.16, 10.65, repro,
1997-12-07,9.30, 5.85, -1.84, 4.73, 4.10, 10.29, repro,
1997-12-08,5.34, 3.63, -6.00, 4.90, 4.68, 10.94, repro,
1997-12-09,0.91, 10.85, -8.94, 3.30, 2.22, 8.69, repro,
1997-12-10,0.13, 2.30, -0.58, 4.99, 4.27, 10.94, repro,
1997-12-11,0.93, 4.07, -3.96, 5.47, 4.71, 11.36, repro,
1997-12-12,2.75, 0.35, 7.34, 4.71, 4.24, 10.44, repro,
1997-12-13,6.58, -0.44, 3.13, 4.44, 4.11, 10.24, repro,
1997-12-14,1.94, 5.14, -8.97, 4.66, 4.57, 10.55, repro,
1997-12-15,3.98, 6.26, -20.18, 4.64, 4.42, 10.55, repro,
1997-12-16,3.55, 2.48, -16.58, 4.69, 4.37, 10.53, repro,
1997-12-17,6.01, 4.62, -8.16, 4.39, 4.13, 10.08, repro,
1997-12-18,4.96, 9.43, -7.25, 3.77, 3.22, 9.39, repro,
1997-12-19,3.29, 7.48, 0.45, 3.63, 3.06, 9.07, repro,
1997-12-21,5.60, 10.60, -1.11, 3.87, 3.33, 10.05, repro,
1997-12-24,-0.40, 10.09, -1.75, 3.87, 3.25, 10.24, repro,
1997-12-25,8.27, 10.11, 4.53, 4.23, 3.64, 10.97, repro,
1997-12-26,3.85, 12.49, 3.20, 4.20, 3.58, 11.32, repro,
1997-12-27,0.96, 10.72, 4.43, 4.43, 3.66, 10.80, repro,
1997-12-29,1.61, 2.52, -3.35, 3.93, 3.39, 9.68, repro,
1997-12-30,-2.42, 9.05, 4.36, 3.84, 2.59, 10.21, repro,
1997-12-31,2.04, 10.45, -7.10, 3.34, 2.26, 8.92, repro,
1998-01-01,1.43, 12.96, -15.16, 3.62, 2.46, 9.79, repro,
1998-01-02,-0.11, 12.61, -4.12, 3.23, 2.26, 9.13, repro,
1998-01-03,3.60, 13.40, 3.03, 3.28, 2.28, 9.23, repro,
1998-01-04,2.39, 16.38, -2.34, 3.32, 2.31, 8.72, repro,
1998-01-05,2.69, 14.33, -2.68, 3.45, 2.36, 9.15, repro,
1998-01-06,5.36, 13.10, -10.38, 3.35, 2.26, 8.82, repro,
1998-01-07,2.63, 12.62, -9.41, 3.78, 2.57, 10.07, repro,
1998-01-08,4.50, 14.64, -15.50, 3.33, 2.32, 9.33, repro,
1998-01-09,3.09, 13.95, -19.40, 3.53, 2.51, 9.96, repro,
1998-01-10,1.38, 12.21, -14.49, 4.02, 3.06, 10.10, repro,
1998-01-11,0.25, 10.46, -20.08, 4.12, 2.66, 9.66, repro,
1998-01-12,1.13, 11.62, -23.49, 3.57, 2.47, 9.64, repro,
1998-01-13,3.37, 12.67, -14.28, 3.40, 2.35, 9.47, repro,
1998-01-14,1.71, 12.30, -11.40, 3.45, 2.34, 9.27, repro,
1998-01-16,3.18, 9.68, -12.33, 3.45, 2.37, 9.50, repro,
1998-01-17,7.33, 9.00, -12.23, 3.48, 2.43, 9.27, repro,
1998-01-18,5.42, 8.58, -13.09, 3.27, 2.26, 9.08, repro,
1998-01-19,5.48, 9.36, -18.73, 3.21, 2.20, 8.75, repro,
1998-01-20,5.49, 7.58, -25.27, 3.52, 2.34, 9.91, repro,
1998-01-21,4.40, 8.04, -30.04, 3.28, 2.22, 8.57, repro,
1998-01-22,6.20, 5.22, -25.30, 3.24, 2.19, 8.68, repro,
1998-01-23,5.83, 1.54, -22.30, 3.29, 2.24, 8.86, repro,
1998-01-24,4.29, 1.37, -31.72, 3.24, 2.22, 8.75, repro,
1998-01-25,4.04, 11.34, -43.14, 3.58, 3.00, 8.90, repro,
1998-01-26,-0.28, 10.90, -19.29, 3.23, 2.17, 8.58, repro,
1998-01-27,1.80, 10.02, -10.38, 3.26, 2.22, 8.55, repro,
1998-01-28,2.28, 10.27, -13.80, 3.31, 2.29, 8.81, repro,
1998-01-29,2.72, 10.53, -14.98, 3.31, 2.22, 8.95, repro,
1998-01-30,1.43, 9.21, -14.66, 3.14, 2.14, 8.45, repro,
1998-01-31,2.88, 8.21, -13.42, 3.26, 2.23, 8.64, repro,
1998-02-01,2.31, 9.40, -15.70, 3.19, 2.17, 8.76, repro,
1998-02-02,2.32, 10.54, -8.53, 3.20, 2.16, 8.49, repro,
1998-02-03,-0.42, 10.15, -13.30, 3.15, 2.13, 8.47, repro,
1998-02-04,1.63, 10.84, -9.21, 3.57, 2.37, 9.31, repro,
1998-02-05,1.84, 10.75, -3.88, 3.45, 2.27, 9.02, repro,
1998-02-06,2.67, 11.85, -6.19, 3.33, 2.25, 9.02, repro,
1998-02-07,2.62, 11.72, -9.52, 3.36, 2.28, 9.00, repro,
1998-02-08,3.28, 11.97, -19.57, 3.57, 2.39, 9.28, repro,
1998-02-09,3.28, 12.15, -0.92, 3.40, 2.36, 9.40, repro,
1998-02-10,4.95, 13.04, 5.88, 3.29, 2.21, 8.70, repro,
1998-02-11,3.49, 10.36, -6.64, 3.45, 2.29, 8.90, repro,
1998-02-12,3.07, 9.34, -8.19, 3.89, 2.51, 9.12, repro,
1998-02-13,4.21, 9.15, -16.19, 3.26, 2.16, 8.54, repro,
1998-02-14,4.16, 11.60, -23.62, 3.22, 2.17, 8.58, repro,
1998-02-15,-0.09, 12.12, -11.18, 3.25, 2.19, 8.89, repro,
1998-02-16,6.12, 9.23, -1.86, 3.52, 2.36, 9.05, repro,
1998-02-17,3.34, 9.90, -13.77, 3.58, 2.54, 10.73, repro,
1998-02-18,1.30, 8.37, -19.66, 3.63, 2.47, 10.29, repro,
1998-02-19,2.89, 9.69, -3.33, 3.53, 2.52, 9.80, repro,
1998-02-20,2.13, 10.22, 3.46, 3.29, 2.28, 9.02, repro,
1998-02-21,4.13, 11.53, 8.01, 3.22, 2.19, 8.83, repro,
1998-02-22,1.23, 10.59, -3.71, 3.22, 2.21, 8.96, repro,
1998-02-23,3.07, 10.11, -8.82, 3.28, 2.23, 9.02, repro,
1998-02-24,3.16, 10.51, -19.38, 3.55, 2.58, 10.03, repro,
1998-02-25,1.00, 7.82, -21.64, 3.24, 2.24, 8.94, repro,
1998-02-26,3.47, 9.94, -3.49, 3.85, 3.30, 9.45, repro,
1998-02-27,4.28, 11.35, 1.77, 3.52, 2.42, 9.25, repro,
1998-02-28,3.99, 11.16, 4.27, 3.33, 2.34, 8.90, repro,
1998-03-01,2.58, 9.53, 0.61, 3.51, 2.43, 9.34, repro,
1998-03-02,2.57, 9.73, -7.52, 3.21, 2.20, 8.63, repro,
1998-03-03,2.35, 10.02, -7.29, 3.75, 2.63, 9.08, repro,
1998-03-04,-0.46, 7.88, -5.25, 3.71, 3.12, 9.05, repro,
1998-03-05,3.29, 9.24, -5.76, 3.11, 2.15, 8.35, repro,
1998-03-06,2.05, 9.28, -7.19, 3.08, 2.12, 8.38, repro,
1998-03-07,1.12, 9.89, -14.47, 3.18, 2.15, 8.54, repro,
1998-03-08,3.05, 11.12, -22.04, 3.38, 2.29, 8.85, repro,
1998-03-09,2.93, 9.61, -21.94, 3.19, 2.14, 8.56, repro,
1998-03-10,2.83, 10.21, -20.44, 3.78, 2.52, 9.78, repro,
1998-03-11,0.76, 10.33, -9.28, 3.25, 2.21, 8.71, repro,
1998-03-12,-3.06, 16.06, -23.85, 3.86, 3.39, 9.24, repro,
1998-03-13,5.03, 13.97, -16.01, 3.73, 3.15, 9.32, repro,
1998-03-14,3.30, 10.10, -9.30, 3.21, 2.14, 8.55, repro,
1998-03-15,-2.62, 12.78, -16.75, 3.83, 3.26, 9.19, repro,
1998-03-16,-1.40, 9.13, -7.25, 3.16, 2.13, 8.42, repro,
1998-03-17,0.70, 12.31, -7.03, 3.38, 2.60, 8.68, repro,
1998-03-18,2.33, 9.88, -12.88, 3.00, 2.08, 8.34, repro,
1998-03-19,1.62, 8.94, -14.74, 3.05, 2.08, 8.37, repro,
1998-03-20,0.69, 8.71, -7.43, 3.21, 2.16, 8.74, repro,
1998-03-21,0.05, 9.14, -15.96, 3.18, 2.15, 8.71, repro,
1998-03-22,-0.13, 8.58, -28.99, 3.08, 2.12, 8.41, repro,
1998-03-23,0.48, 8.76, -24.57, 3.20, 2.16, 8.65, repro,
1998-03-24,2.03, 9.88, -25.35, 3.23, 2.16, 8.64, repro,
1998-03-25,0.18, 8.46, -16.92, 3.18, 2.14, 8.53, repro,
1998-03-26,2.93, 8.57, -12.37, 3.22, 2.23, 8.55, repro,
1998-03-27,1.76, 7.13, -10.00, 3.57, 2.51, 9.01, repro,
1998-03-28,-0.15, 8.59, -5.47, 3.15, 2.22, 8.49, repro,
1998-03-29,2.81, 8.58, -17.91, 3.18, 2.16, 8.88, repro,
1998-03-31,6.17, 8.44, -16.17, 3.17, 2.17, 8.71, repro,
1998-04-01,2.99, 9.07, -20.41, 3.06, 2.10, 8.59, repro,
1998-04-02,2.27, 9.33, -14.33, 3.04, 2.09, 8.55, repro,
1998-04-04,12.67, 11.79, 0.33, 3.16, 2.20, 8.59, repro,
1998-04-05,-0.57, 7.84, -10.50, 3.09, 2.13, 8.60, repro,
1998-04-06,0.07, 7.66, -1.02, 3.19, 2.14, 8.75, repro,
1998-04-07,0.68, 9.47, -9.07, 3.23, 2.21, 8.81, repro,
1998-04-08,1.15, 8.84, -8.02, 3.30, 2.28, 8.74, repro,
1998-04-09,2.08, 8.10, -5.79, 3.14, 2.11, 8.52, repro,
1998-04-10,-3.12, 9.44, -8.56, 3.63, 2.97, 9.35, repro,
1998-04-11,2.62, 8.66, 5.20, 3.60, 2.42, 9.11, repro,
1998-04-12,2.27, 9.61, -0.82, 3.30, 2.18, 8.75, repro,
1998-04-13,2.81, 9.70, 2.31, 3.33, 2.18, 8.61, repro,
1998-04-14,2.16, 9.29, 1.72, 3.29, 2.15, 8.65, repro,
1998-04-15,0.19, 8.60, -6.63, 3.34, 2.20, 8.73, repro,
1998-04-16,1.10, 10.09, -4.93, 3.24, 2.13, 8.52, repro,
1998-04-17,1.35, 9.18, -2.42, 3.33, 2.19, 8.70, repro,
1998-04-18,2.26, 8.56, -7.75, 3.50, 2.37, 8.72, repro,
1998-04-19,2.62, 10.09, -8.15, 3.14, 2.12, 8.45, repro,
1998-04-20,1.81, 9.98, -7.31, 3.26, 2.21, 8.72, repro,
1998-04-21,0.51, 10.13, -11.11, 3.35, 2.26, 8.95, repro,
1998-04-22,0.97, 8.49, -17.45, 3.11, 2.12, 8.41, repro,
1998-04-23,1.04, 7.91, -14.66, 3.74, 3.15, 9.17, repro,
1998-04-24,2.28, 8.46, -14.17, 3.16, 2.14, 8.64, repro,
1998-04-25,3.17, 9.93, -16.62, 3.20, 2.18, 8.50, repro,
1998-04-26,1.39, 10.91, -8.07, 3.20, 2.15, 8.53, repro,
1998-04-27,-0.07, 8.38, -14.66, 3.19, 2.15, 8.44, repro,
1998-04-28,2.63, 10.50, -14.71, 3.29, 2.17, 8.48, repro,
1998-04-29,2.41, 9.67, -5.91, 3.34, 2.20, 8.59, repro,
1998-04-30,1.79, 10.00, -21.41, 3.25, 2.21, 8.52, repro,
1998-05-01,-0.91, 8.07, -11.35, 3.80, 2.69, 9.08, repro,
1998-05-02,1.78, 8.86, -9.61, 3.50, 2.36, 9.34, repro,
1998-05-03,1.29, 9.18, 4.29, 3.22, 2.19, 8.98, repro,
1998-05-04,2.73, 8.71, -12.70, 3.27, 2.24, 9.00, repro,
1998-05-05,4.39, 10.88, -14.08, 3.13, 2.16, 8.60, repro,
1998-05-06,4.35, 9.06, -3.69, 3.20, 2.15, 8.75, repro,
1998-05-07,1.64, 10.26, -5.26, 3.11, 2.11, 8.57, repro,
1998-05-08,0.13, 7.88, -9.02, 3.06, 2.11, 8.52, repro,
1998-05-09,1.25, 9.42, -13.68, 3.06, 2.06, 8.36, repro,
1998-05-10,2.16, 8.26, -10.05, 3.13, 2.13, 8.49, repro,
1998-05-11,0.36, 7.44, -9.82, 3.12, 2.15, 8.44, repro,
1998-05-12,1.05, 7.75, -17.72, 3.08, 2.10, 8.50, repro,
1998-05-13,0.48, 7.09, -16.17, 3.08, 2.19, 8.46, repro,
1998-05-15,1.10, 8.85, -21.41, 3.09, 2.13, 8.52, repro,
1998-05-16,4.46, 6.26, -8.93, 3.47, 2.86, 8.94, repro,
1998-05-17,2.64, 8.43, -14.19, 3.01, 2.08, 8.38, repro,
1998-05-18,1.48, 7.46, -6.51, 3.09, 2.12, 8.45, repro,
1998-05-19,2.32, 9.08, -8.20, 3.09, 2.15, 8.41, repro,
1998-05-20,0.90, 7.97, -10.41, 3.08, 2.12, 8.41, repro,
1998-05-21,2.33, 8.02, -4.18, 3.48, 2.41, 8.67, repro,
1998-05-22,2.70, 8.97, -8.73, 3.09, 2.12, 8.52, repro,
1998-05-23,2.46, 8.74, -8.38, 3.13, 2.15, 8.57, repro,
1998-05-24,2.45, 7.21, -3.63, 3.05, 2.10, 8.41, repro,
1998-05-25,3.16, 8.25, -8.39, 3.45, 2.29, 9.80, repro,
1998-05-26,3.25, 7.38, -1.38, 3.10, 2.13, 8.54, repro,
1998-05-27,2.18, 7.24, -11.47, 3.19, 2.17, 8.59, repro,
1998-05-28,4.06, 8.72, -13.75, 3.08, 2.09, 8.40, repro,
1998-05-29,1.47, 8.26, -12.80, 3.16, 2.14, 8.58, repro,
1998-05-30,1.73, 8.73, -7.41, 3.05, 2.10, 8.59, repro,
1998-05-31,2.96, 8.72, -11.08, 2.90, 2.03, 8.23, repro,
1998-06-01,3.11, 8.95, -16.26, 2.95, 2.09, 8.37, repro,
1998-06-02,2.27, 8.42, -14.89, 2.99, 2.06, 8.35, repro,
1998-06-03,6.28, 9.71, -12.56, 3.01, 2.06, 8.39, repro,
1998-06-04,5.08, 8.86, -11.94, 3.20, 2.18, 8.56, repro,
1998-06-05,2.62, 8.21, -5.99, 3.10, 2.15, 8.59, repro,
1998-06-06,3.17, 9.68, -10.63, 3.22, 2.18, 8.65, repro,
1998-06-07,2.23, 9.89, -10.43, 3.03, 2.10, 8.53, repro,
1998-06-08,7.07, 10.10, -11.64, 3.40, 2.96, 8.89, repro,
1998-06-09,5.03, 8.32, -7.40, 3.11, 2.13, 8.49, repro,
1998-06-10,3.39, 10.41, -0.18, 3.14, 2.15, 8.81, repro,
1998-06-11,5.46, 9.03, -10.57, 3.22, 2.17, 8.65, repro,
1998-06-12,5.46, 8.38, -8.23, 3.04, 2.14, 8.53, repro,
1998-06-13,3.18, 8.15, -10.92, 3.04, 2.10, 8.43, repro,
1998-06-14,2.46, 8.71, -16.24, 3.09, 2.10, 8.43, repro,
1998-06-15,4.81, 8.69, -15.76, 3.33, 2.21, 8.78, repro,
1998-06-16,5.37, 7.28, -16.55, 3.25, 2.21, 8.91, repro,
1998-06-17,3.69, 8.53, -15.24, 3.11, 2.13, 8.45, repro,
1998-06-18,2.46, 9.15, -20.37, 3.56, 2.44, 8.78, repro,
1998-06-19,1.99, 9.53, -25.84, 3.21, 2.13, 8.44, repro,
1998-06-20,3.24, 8.02, -20.07, 3.25, 2.16, 8.49, repro,
1998-06-21,1.03, 8.08, -17.18, 3.24, 2.18, 8.55, repro,
1998-06-22,3.60, 10.08, -15.59, 3.40, 2.25, 8.86, repro,
1998-06-23,4.08, 7.76, -13.21, 3.26, 2.20, 8.98, repro,
1998-06-24,2.40, 9.06, -11.21, 3.29, 2.20, 9.00, repro,
1998-06-25,4.25, 8.99, -15.57, 3.26, 2.35, 8.92, repro,
1998-06-26,2.30, 7.28, -12.29, 3.35, 2.24, 9.13, repro,
1998-06-27,2.55, 9.96, -16.54, 3.17, 2.27, 8.84, repro,
1998-06-28,3.81, 8.32, -6.73, 3.04, 2.16, 8.45, repro,
1998-06-29,6.70, 10.40, -3.00, 3.12, 2.29, 8.93, repro,
1998-06-30,4.70, 7.14, -3.79, 3.06, 2.10, 8.44, repro,
1998-07-01,5.37, 8.79, -6.79, 3.03, 2.10, 8.75, repro,
1998-07-02,2.86, 8.54, -8.43, 3.07, 2.10, 8.49, repro,
1998-07-03,4.42, 8.26, -2.66, 3.00, 2.08, 8.32, repro,
1998-07-04,3.43, 8.62, -3.71, 3.00, 2.09, 8.39, repro,
1998-07-05,3.46, 8.64, -2.84, 3.00, 2.09, 8.43, repro,
1998-07-06,4.44, 6.45, -7.25, 4.48, 3.01, 13.58, repro,
1998-07-07,1.24, 9.55, -5.67, 3.12, 2.13, 8.88, repro,
1998-07-17,0.34, 7.33, -13.22, 3.02, 2.08, 8.46, repro,
1998-07-18,1.81, 9.07, -14.78, 3.06, 2.11, 8.51, repro,
1998-07-19,3.35, 7.81, -9.74, 3.11, 2.14, 8.48, repro,
1998-07-20,3.28, 8.04, -7.97, 3.05, 2.11, 8.42, repro,
1998-07-21,5.37, 0.24, 1.20, 3.42, 2.89, 8.91, repro,
1998-07-22,3.59, 9.07, -5.74, 3.24, 2.45, 9.19, repro,
1998-07-23,3.70, 9.80, -14.98, 3.25, 2.30, 9.04, repro,
1998-07-24,1.66, 11.40, -5.18, 3.13, 2.20, 8.71, repro,
1998-07-25,4.56, 10.30, -16.24, 3.00, 2.08, 8.39, repro,
1998-07-26,5.80, 8.13, -16.78, 3.11, 2.14, 8.45, repro,
1998-07-27,3.16, 9.21, -19.95, 2.99, 2.11, 8.65, repro,
1998-07-28,5.28, 8.72, -16.18, 3.23, 2.23, 8.82, repro,
1998-07-29,2.49, 9.33, -9.03, 3.02, 2.09, 8.44, repro,
1998-07-30,2.18, 7.71, -6.66, 2.95, 2.08, 8.37, repro,
1998-07-31,0.12, 8.05, -10.78, 3.15, 2.15, 8.62, repro,
1998-08-01,2.33, 9.71, -10.55, 3.10, 2.22, 8.62, repro,
1998-08-02,3.65, 9.38, -13.81, 3.06, 2.13, 8.47, repro,
1998-08-03,1.59, 8.84, -11.07, 3.04, 2.13, 8.63, repro,
1998-08-04,2.31, 8.28, -9.32, 3.21, 2.19, 8.76, repro,
1998-08-05,2.05, 9.26, -5.83, 3.06, 2.11, 8.44, repro,
1998-08-06,1.55, 9.48, -5.82, 3.13, 2.19, 8.84, repro,
1998-08-07,4.46, 9.79, -15.62, 3.17, 2.18, 8.86, repro,
1998-08-08,3.15, 8.15, -9.17, 3.07, 2.10, 8.45, repro,
1998-08-09,2.32, 7.85, -10.77, 3.11, 2.13, 8.53, repro,
1998-08-10,0.38, 9.11, -26.68, 3.09, 2.14, 8.52, repro,
1998-08-11,1.04, 8.50, -20.06, 3.13, 2.11, 8.72, repro,
1998-08-12,1.48, 8.14, -17.22, 3.17, 2.21, 8.57, repro,
1998-08-13,1.92, 9.65, -13.72, 3.02, 2.08, 8.38, repro,
1998-08-14,2.98, 8.82, -10.86, 3.05, 2.13, 8.51, repro,
1998-08-15,2.90, 9.21, -9.47, 3.13, 2.14, 8.57, repro,
1998-08-16,3.45, 9.83, -13.58, 3.16, 2.17, 8.65, repro,
1998-08-18,2.84, 10.13, -11.72, 3.18, 2.12, 8.53, repro,
1998-08-19,3.36, 10.34, -11.09, 3.14, 2.13, 8.54, repro,
1998-08-20,3.58, 8.68, -11.08, 3.14, 2.12, 8.71, repro,
1998-08-21,2.54, 10.41, -12.33, 3.15, 2.12, 8.52, repro,
1998-08-22,4.44, 11.69, -14.42, 3.23, 2.18, 8.94, repro,
1998-08-23,6.62, 10.63, -15.54, 3.17, 2.16, 8.57, repro,
1998-08-24,5.29, 10.49, -14.94, 3.32, 2.25, 8.68, repro,
1998-08-25,4.72, 11.91, -18.10, 3.17, 2.15, 8.59, repro,
1998-08-26,2.83, 10.30, -15.02, 3.31, 2.21, 9.03, repro,
1998-08-27,0.91, 8.93, -12.08, 3.83, 2.58, 11.07, repro,
1998-08-28,3.72, 9.47, -10.35, 3.17, 2.12, 8.59, repro,
1998-08-29,2.93, 9.23, -16.27, 3.15, 2.13, 8.49, repro,
1998-08-30,2.03, 7.82, -16.05, 3.09, 2.14, 8.49, repro,
1998-08-31,3.05, 7.70, -20.75, 3.17, 2.14, 8.77, repro,
1998-09-01,1.57, 10.05, -25.89, 3.25, 2.20, 8.84, repro,
1998-09-02,0.74, 8.87, -18.58, 3.18, 2.20, 8.64, repro,
1998-09-03,3.55, 5.42, -12.05, 3.23, 2.43, 8.66, repro,
1998-09-04,3.17, 8.01, -15.61, 3.05, 2.06, 8.55, repro,
1998-09-06,2.66, 9.61, -14.93, 3.16, 2.14, 8.55, repro,
1998-09-07,1.47, 9.96, -17.76, 3.20, 2.21, 8.78, repro,
1998-09-08,1.20, 7.90, -7.38, 3.31, 2.23, 8.82, repro,
1998-09-09,1.85, 7.96, -3.12, 3.36, 2.26, 8.76, repro,
1998-09-10,4.11, 10.72, -13.80, 3.10, 2.12, 8.49, repro,
1998-09-11,3.97, 8.29, -8.62, 3.16, 2.13, 8.68, repro,
1998-09-12,3.29, 10.74, -18.69, 3.21, 2.13, 8.54, repro,
1998-09-13,4.32, 10.15, -13.07, 3.10, 2.12, 8.51, repro,
1998-09-14,3.10, 8.35, -14.98, 3.26, 2.25, 8.75, repro,
1998-09-15,2.35, 8.65, -1.07, 3.11, 2.14, 8.43, repro,
1998-09-16,2.21, 8.97, -9.53, 3.11, 2.14, 8.46, repro,
1998-09-18,2.86, 9.96, -20.91, 3.29, 2.23, 9.15, repro,
1998-09-19,3.22, 9.06, -30.62, 3.04, 2.07, 8.39, repro,
1998-09-21,2.70, 7.97, -19.21, 3.07, 2.09, 8.43, repro,
1998-09-22,3.22, 5.40, -17.89, 3.44, 2.83, 9.73, repro,
1998-09-23,2.72, 4.66, -14.09, 3.60, 3.07, 9.76, repro,
1998-09-24,5.13, 9.17, -21.80, 3.26, 2.23, 8.90, repro,
1998-09-25,3.23, 6.99, -22.49, 3.71, 2.46, 10.12, repro,
1998-09-26,1.26, 9.25, -12.16, 3.16, 2.14, 8.48, repro,
1998-09-27,3.89, 10.11, -33.22, 3.15, 2.14, 8.59, repro,
1998-10-01,1.47, 9.78, -20.26, 3.26, 2.19, 8.87, repro,
1998-10-02,0.05, 9.30, -21.52, 3.32, 2.19, 9.00, repro,
1998-10-03,2.64, 8.28, -13.07, 3.08, 2.11, 8.59, repro,
1998-10-04,1.07, 8.36, -22.16, 3.16, 2.19, 8.94, repro,
1998-10-05,1.42, 7.11, -17.22, 3.17, 2.16, 8.59, repro,
1998-10-06,1.21, 7.07, -17.95, 3.05, 2.14, 8.55, repro,
1998-10-07,2.46, 7.96, -15.14, 3.50, 2.35, 9.76, repro,
1998-10-08,2.23, 8.07, -15.15, 3.35, 2.23, 8.88, repro,
1998-10-09,4.50, 9.78, -6.31, 3.23, 2.17, 8.83, repro,
1998-10-10,3.81, 8.47, 0.60, 3.14, 2.15, 8.65, repro,
1998-10-11,4.89, 10.27, 3.92, 3.10, 2.15, 8.64, repro,
1998-10-12,4.25, 9.54, 0.13, 3.20, 2.19, 8.72, repro,
1998-10-13,5.43, 9.27, -14.02, 3.31, 2.23, 8.85, repro,
1998-10-14,2.99, 10.04, -12.49, 3.11, 2.15, 8.68, repro,
1998-10-15,2.78, 9.28, -2.22, 3.25, 2.20, 8.90, repro,
1998-10-16,2.96, 9.31, 2.71, 3.18, 2.16, 8.77, repro,
1998-10-17,2.44, 8.33, -7.98, 3.28, 2.22, 9.05, repro,
1998-10-18,4.11, 8.54, -1.22, 3.60, 2.39, 9.71, repro,
1998-10-19,2.77, 6.88, -1.58, 3.80, 2.50, 9.95, repro,
1998-10-20,3.70, 9.19, -6.65, 3.51, 2.36, 9.11, repro,
1998-10-21,1.62, 9.33, -7.00, 3.50, 2.33, 9.37, repro,
1998-10-22,1.97, 8.54, -12.71, 3.52, 2.38, 10.12, repro,
1998-10-23,4.04, 10.62, -5.78, 3.52, 2.37, 9.66, repro,
1998-10-24,2.69, 8.11, 3.20, 3.46, 2.33, 9.57, repro,
1998-10-26,2.86, 11.57, 0.59, 3.30, 2.27, 9.24, repro,
1998-10-27,4.70, 7.78, -5.06, 3.52, 2.40, 9.92, repro,
1998-10-28,3.66, 10.50, 2.24, 3.29, 2.25, 8.88, repro,
1998-10-29,5.77, 8.83, 4.89, 3.38, 2.28, 9.11, repro,
1998-10-30,5.62, 8.39, 1.81, 3.29, 2.23, 9.07, repro,
1998-10-31,4.13, 9.83, -7.72, 3.49, 2.27, 8.91, repro,
1998-11-01,2.67, 7.08, 3.05, 3.81, 2.65, 9.83, repro,
1998-11-02,0.75, 8.99, -9.52, 3.51, 2.33, 9.50, repro,
1998-11-03,2.61, 7.82, -5.25, 3.81, 2.52, 9.88, repro,
1998-11-04,2.84, 8.83, -3.46, 3.42, 2.27, 8.89, repro,
1998-11-05,2.92, 8.47, -3.13, 3.70, 2.45, 9.95, repro,
1998-11-06,2.25, 8.55, -7.50, 3.96, 2.55, 10.44, repro,
1998-11-07,2.22, 6.91, -5.10, 3.86, 2.60, 10.92, repro,
1998-11-08,1.48, 7.45, -21.27, 3.80, 2.56, 9.92, repro,
1998-11-09,1.02, 7.41, -20.03, 3.90, 2.67, 11.09, repro,
1998-11-10,2.25, 9.92, -12.50, 3.40, 2.26, 8.90, repro,
1998-11-11,2.61, 8.86, -15.22, 3.28, 2.14, 8.68, repro,
1998-11-12,3.48, 6.96, -14.33, 3.11, 2.15, 8.54, repro,
1998-11-13,2.51, 4.67, -13.48, 4.09, 2.75, 11.36, repro,
1998-11-14,3.40, 5.53, -16.91, 3.42, 2.26, 9.15, repro,
1998-11-15,3.81, 5.80, -14.23, 3.17, 2.16, 8.68, repro,
1998-11-16,5.73, 5.13, -23.55, 3.02, 2.08, 8.42, repro,
1998-11-17,3.37, 5.93, -22.84, 3.10, 2.13, 8.63, repro,
1998-11-18,3.10, 5.99, -25.27, 3.04, 2.07, 8.44, repro,
1998-11-19,3.90, 5.03, -23.11, 3.20, 2.23, 8.86, repro,
1998-11-20,4.57, 5.31, -24.81, 3.13, 2.19, 8.54, repro,
1998-11-21,4.29, 5.82, -26.38, 3.12, 2.11, 8.47, repro,
1998-11-22,4.53, 8.29, -13.45, 3.05, 2.06, 8.39, repro,
1998-11-23,-0.62, 9.22, -20.34, 3.21, 2.12, 8.57, repro,
1998-11-24,2.05, 7.99, -15.50, 4.49, 2.66, 12.17, repro,
1998-11-25,3.39, 9.72, -14.31, 3.26, 2.22, 8.61, repro,
1998-12-01,1.59, 11.52, -11.22, 3.46, 2.32, 8.76, repro,
1998-12-02,-0.32, 9.95, -15.20, 3.08, 2.14, 8.44, repro,
1998-12-03,1.65, 7.66, 2.73, 3.20, 2.19, 8.71, repro,
1998-12-04,-0.02, 7.18, -3.34, 3.33, 2.24, 8.87, repro,
1998-12-05,0.78, 10.07, -7.90, 3.34, 2.26, 9.01, repro,
1998-12-06,0.53, 8.54, -7.85, 3.38, 2.36, 8.91, repro,
1998-12-07,1.15, 9.44, -8.73, 3.38, 2.27, 9.44, repro,
1998-12-08,1.63, 10.31, -10.62, 3.65, 2.68, 10.46, repro,
1998-12-09,0.04, 10.08, -15.48, 3.59, 2.47, 9.65, repro,
1998-12-10,0.25, 10.17, -12.31, 3.84, 2.80, 10.22, repro,
1998-12-11,0.31, 9.68, -14.96, 3.53, 2.33, 9.39, repro,
1998-12-12,0.54, 8.96, -6.80, 3.32, 2.26, 9.15, repro,
1998-12-13,0.12, 11.96, -9.51, 3.32, 2.25, 9.03, repro,
1998-12-14,2.49, 8.72, -16.86, 3.49, 2.46, 9.78, repro,
1998-12-15,5.32, 12.97, 0.46, 3.66, 2.53, 9.89, repro,
1998-12-16,1.75, 9.32, -4.61, 3.56, 2.44, 9.44, repro,
1998-12-17,0.86, 12.66, -0.32, 3.40, 2.41, 9.60, repro,
1998-12-18,6.23, 10.80, 3.64, 3.50, 2.53, 9.93, repro,
1998-12-19,2.74, 10.69, 0.53, 3.43, 2.42, 9.26, repro,
1998-12-20,2.36, 9.10, -0.91, 3.37, 2.39, 9.36, repro,
1998-12-21,1.74, 8.53, -9.70, 3.33, 2.30, 9.47, repro,
1998-12-22,0.84, 7.80, -9.07, 3.54, 2.63, 9.46, repro,
1998-12-23,1.62, 9.81, -13.61, 3.64, 2.71, 10.66, repro,
1998-12-24,-2.42, 8.47, -13.13, 3.46, 2.45, 9.81, repro,
1998-12-25,0.69, 8.87, -5.39, 3.64, 2.58, 10.15, repro,
1998-12-26,1.30, 10.35, -3.96, 3.66, 2.58, 9.98, repro,
1998-12-27,-0.07, 9.33, -4.87, 3.56, 2.49, 9.69, repro,
1998-12-28,2.31, 10.06, -2.91, 3.64, 2.55, 10.28, repro,
1998-12-29,2.71, 8.33, -11.30, 3.97, 2.87, 10.71, repro,
1998-12-30,2.38, 8.39, -19.00, 3.58, 2.41, 9.36, repro,
1998-12-31,3.57, 9.89, -17.02, 3.36, 2.43, 9.44, repro,
1999-03-01,2.27, 10.90, -7.45, 3.60, 2.47, 10.60, repro,
1999-03-02,2.32, 11.56, -8.81, 3.13, 2.09, 9.37, repro,
1999-03-03,2.34, 13.24, -18.00, 3.11, 2.20, 8.73, repro,
1999-03-04,1.61, 11.34, -18.22, 2.88, 2.01, 8.44, repro,
1999-03-05,3.66, 11.93, -12.60, 2.87, 2.01, 8.39, repro,
1999-03-06,1.38, 9.25, -7.73, 3.11, 2.20, 8.84, repro,
1999-03-07,2.91, 10.66, -11.75, 3.12, 2.13, 8.90, repro,
1999-03-08,-1.08, 10.13, -17.67, 2.96, 2.05, 8.49, repro,
1999-03-09,-2.38, 9.14, -13.05, 3.10, 2.09, 8.64, repro,
1999-03-10,0.11, 10.01, -14.89, 2.94, 2.02, 8.58, repro,
1999-03-11,1.90, 12.16, -12.84, 2.77, 1.96, 8.24, repro,
1999-03-12,0.32, 11.32, -23.20, 2.81, 1.98, 8.35, repro,
1999-03-13,-0.82, 10.66, -28.56, 2.83, 1.97, 8.32, repro,
1999-03-14,-3.73, 7.69, -18.26, 2.81, 1.95, 8.38, repro,
1999-03-15,-2.57, 9.13, -21.58, 2.98, 2.08, 8.80, repro,
1999-03-16,1.76, 9.25, -10.56, 3.11, 2.20, 8.92, repro,
1999-03-17,0.96, 7.84, -21.01, 2.79, 1.94, 8.48, repro,
1999-03-18,-0.35, 8.19, -5.88, 2.97, 2.08, 8.55, repro,
1999-03-19,-0.13, 10.46, -5.06, 2.87, 1.97, 8.71, repro,
1999-03-20,-0.34, 6.75, 2.42, 2.93, 2.04, 8.64, repro,
1999-03-21,-0.06, 6.14, 3.31, 2.84, 2.00, 8.52, repro,
1999-03-22,0.98, 7.71, -2.00, 3.19, 2.51, 8.87, repro,
1999-03-23,-1.55, 13.89, -13.87, 3.09, 2.37, 8.75, repro,
1999-03-24,-0.07, 11.20, -6.66, 3.14, 2.38, 8.88, repro,
1999-03-25,1.69, 9.74, 0.91, 3.19, 2.23, 9.85, repro,
1999-03-26,-2.59, 10.21, -5.74, 2.90, 2.01, 8.66, repro,